TimeCDT,TemperatureF,Dew PointF,Humidity,Sea Level PressureIn,VisibilityMPH,Wind Direction,Wind SpeedMPH,Gust SpeedMPH,PrecipitationIn,Events,Conditions,WindDirDegrees,DateUTC
12:15 AM,77.2,64.6,65,29.95,10.0,SSW,8.1,-,N/A,,Clear,200,2013-08-27 05:15:00
12:35 AM,76.8,64.4,65,29.95,10.0,SSW,8.1,-,N/A,,Clear,200,2013-08-27 05:35:00
12:55 AM,76.5,64.2,66,29.95,10.0,SSW,8.1,-,N/A,,Clear,200,2013-08-27 05:55:00
1:15 AM,77.2,63.5,63,29.95,10.0,SSW,8.1,-,N/A,,Clear,200,2013-08-27 06:15:00
1:35 AM,78.3,63.0,59,29.95,10.0,SSW,8.1,-,N/A,,Clear,210,2013-08-27 06:35:00
1:55 AM,77.7,63.0,60,29.95,10.0,SSW,5.8,-,N/A,,Clear,200,2013-08-27 06:55:00
2:15 AM,77.0,63.3,63,29.95,10.0,South,5.8,-,N/A,,Clear,190,2013-08-27 07:15:00
2:35 AM,76.3,63.1,64,29.95,10.0,South,4.6,-,N/A,,Clear,170,2013-08-27 07:35:00
2:55 AM,75.2,63.3,66,29.95,10.0,South,3.5,-,N/A,,Clear,170,2013-08-27 07:55:00
3:15 AM,74.5,63.3,68,29.95,10.0,SSE,4.6,-,N/A,,Clear,160,2013-08-27 08:15:00
3:35 AM,73.8,63.3,70,29.95,10.0,SSE,4.6,-,N/A,,Clear,160,2013-08-27 08:35:00
3:55 AM,73.0,63.5,72,29.95,10.0,SSE,5.8,-,N/A,,Clear,150,2013-08-27 08:55:00
4:15 AM,72.9,63.5,72,29.96,10.0,SE,5.8,-,N/A,,Clear,140,2013-08-27 09:15:00
4:35 AM,72.0,63.3,74,29.96,10.0,SSE,5.8,-,N/A,,Clear,160,2013-08-27 09:35:00
4:55 AM,72.0,63.0,73,29.95,10.0,Calm,Calm,-,N/A,,Clear,0,2013-08-27 09:55:00
5:15 AM,71.6,62.8,74,29.95,10.0,South,4.6,-,N/A,,Clear,170,2013-08-27 10:15:00
5:35 AM,70.9,62.8,75,29.95,10.0,SE,3.5,-,N/A,,Clear,140,2013-08-27 10:35:00
5:55 AM,70.5,62.8,76,29.95,10.0,SSE,3.5,-,N/A,,Clear,150,2013-08-27 10:55:00
6:15 AM,70.5,62.8,76,29.95,10.0,Calm,Calm,-,N/A,,Clear,0,2013-08-27 11:15:00
6:35 AM,70.2,62.6,77,29.95,10.0,ESE,3.5,-,N/A,,Clear,120,2013-08-27 11:35:00
6:55 AM,70.3,62.6,76,29.95,10.0,SE,4.6,-,N/A,,Clear,130,2013-08-27 11:55:00
7:15 AM,70.2,62.6,77,29.95,10.0,South,4.6,-,N/A,,Clear,170,2013-08-27 12:15:00
7:35 AM,70.9,62.6,75,29.95,10.0,South,5.8,-,N/A,,Clear,180,2013-08-27 12:35:00
7:55 AM,71.8,62.6,73,29.96,10.0,South,3.5,-,N/A,,Clear,170,2013-08-27 12:55:00
8:15 AM,72.9,63.1,71,29.96,10.0,South,4.6,-,N/A,,Clear,180,2013-08-27 13:15:00
8:35 AM,74.3,63.0,68,29.96,10.0,South,4.6,-,N/A,,Clear,180,2013-08-27 13:35:00
8:55 AM,75.4,63.5,66,29.95,10.0,South,3.5,-,N/A,,Clear,190,2013-08-27 13:55:00
9:15 AM,76.3,63.5,64,29.95,10.0,South,4.6,-,N/A,,Clear,180,2013-08-27 14:15:00
9:35 AM,77.9,63.3,61,29.96,10.0,SSW,3.5,-,N/A,,Clear,200,2013-08-27 14:35:00
9:55 AM,78.8,64.9,62,29.95,10.0,SSW,8.1,-,N/A,,Clear,200,2013-08-27 14:55:00
10:15 AM,79.9,64.9,60,29.96,10.0,SSW,6.9,-,N/A,,Clear,210,2013-08-27 15:15:00
10:35 AM,81.0,64.4,57,29.96,10.0,SW,5.8,-,N/A,,Clear,230,2013-08-27 15:35:00
10:55 AM,81.7,65.7,58,29.96,10.0,SW,6.9,-,N/A,,Clear,220,2013-08-27 15:55:00
11:15 AM,82.6,66.0,57,29.96,10.0,SW,11.5,-,N/A,,Clear,220,2013-08-27 16:15:00
11:35 AM,83.7,67.3,58,29.96,10.0,SSW,9.2,-,N/A,,Clear,210,2013-08-27 16:35:00
11:55 AM,84.6,66.9,55,29.96,10.0,SW,5.8,-,N/A,,Clear,220,2013-08-27 16:55:00
12:15 PM,85.3,67.3,55,29.96,10.0,WSW,5.8,-,N/A,,Clear,240,2013-08-27 17:15:00
12:35 PM,85.8,68.4,56,29.96,10.0,SSW,5.8,-,N/A,,Clear,210,2013-08-27 17:35:00
12:55 PM,86.0,69.3,57,29.96,10.0,SSW,8.1,-,N/A,,Clear,210,2013-08-27 17:55:00
1:15 PM,86.9,70.3,58,29.95,10.0,SSW,5.8,-,N/A,,Clear,200,2013-08-27 18:15:00
1:35 PM,87.1,70.2,57,29.94,10.0,South,8.1,-,N/A,,Clear,190,2013-08-27 18:35:00
1:55 PM,88.0,70.9,57,29.94,10.0,SSW,8.1,-,N/A,,Clear,200,2013-08-27 18:55:00
2:15 PM,88.7,71.4,56,29.94,10.0,SSW,9.2,-,N/A,,Clear,200,2013-08-27 19:15:00
2:35 PM,89.4,71.1,55,29.94,10.0,SSW,9.2,-,N/A,,Clear,200,2013-08-27 19:35:00
2:55 PM,89.6,71.1,54,29.94,10.0,South,11.5,-,N/A,,Clear,190,2013-08-27 19:55:00
3:15 PM,89.8,72.0,56,29.93,10.0,South,8.1,-,N/A,,Clear,180,2013-08-27 20:15:00
3:35 PM,89.8,71.8,55,29.93,10.0,South,11.5,-,N/A,,Clear,180,2013-08-27 20:35:00
3:55 PM,90.3,71.4,54,29.93,10.0,South,11.5,-,N/A,,Clear,190,2013-08-27 20:55:00
4:15 PM,90.7,71.1,52,29.93,10.0,South,11.5,-,N/A,,Clear,190,2013-08-27 21:15:00
4:35 PM,90.7,70.9,52,29.93,10.0,SSW,10.4,-,N/A,,Clear,200,2013-08-27 21:35:00
4:55 PM,90.5,70.9,52,29.93,10.0,SSW,8.1,-,N/A,,Clear,200,2013-08-27 21:55:00
5:15 PM,90.3,71.1,53,29.93,10.0,South,9.2,-,N/A,,Clear,190,2013-08-27 22:15:00
5:35 PM,90.3,70.3,52,29.92,10.0,SSW,8.1,-,N/A,,Clear,200,2013-08-27 22:35:00
5:55 PM,90.0,70.2,52,29.92,10.0,SSW,6.9,-,N/A,,Clear,200,2013-08-27 22:55:00
6:15 PM,89.2,72.5,58,29.92,10.0,South,5.8,-,N/A,,Clear,170,2013-08-27 23:15:00
6:35 PM,89.1,72.0,57,29.92,10.0,South,5.8,-,N/A,,Clear,170,2013-08-27 23:35:00
6:55 PM,87.8,73.0,61,29.92,10.0,SSE,4.6,-,N/A,,Clear,160,2013-08-27 23:55:00
7:15 PM,86.4,73.4,65,29.91,10.0,SSE,4.6,-,N/A,,Clear,150,2013-08-28 00:15:00
7:35 PM,84.6,72.9,68,29.91,10.0,SSE,3.5,-,N/A,,Clear,150,2013-08-28 00:35:00
7:55 PM,82.8,72.5,71,29.92,10.0,SSE,4.6,-,N/A,,Clear,150,2013-08-28 00:55:00
8:15 PM,80.6,72.0,75,29.92,10.0,SE,4.6,-,N/A,,Clear,140,2013-08-28 01:15:00
8:35 PM,79.7,71.4,76,29.92,10.0,SE,4.6,-,N/A,,Clear,140,2013-08-28 01:35:00
8:55 PM,78.6,70.3,76,29.92,10.0,SE,3.5,-,N/A,,Clear,140,2013-08-28 01:55:00
9:15 PM,77.9,69.8,76,29.93,10.0,SE,3.5,-,N/A,,Clear,140,2013-08-28 02:15:00
9:35 PM,78.3,68.9,73,29.93,10.0,SE,4.6,-,N/A,,Clear,140,2013-08-28 02:35:00
9:55 PM,77.2,67.6,72,29.94,10.0,SE,3.5,-,N/A,,Clear,140,2013-08-28 02:55:00
10:15 PM,76.1,67.3,74,29.94,10.0,SE,3.5,-,N/A,,Clear,140,2013-08-28 03:15:00
10:35 PM,75.2,66.7,75,29.94,10.0,SSE,3.5,-,N/A,,Clear,150,2013-08-28 03:35:00
10:55 PM,74.8,66.2,74,29.95,7.0,Calm,Calm,-,N/A,,Clear,0,2013-08-28 03:55:00
11:15 PM,75.6,64.9,69,29.95,10.0,SE,3.5,-,N/A,,Clear,140,2013-08-28 04:15:00
11:35 PM,74.8,64.4,70,29.95,10.0,SSE,3.5,-,N/A,,Clear,150,2013-08-28 04:35:00
11:55 PM,74.3,63.9,70,29.95,10.0,Calm,Calm,-,N/A,,Clear,0,2013-08-28 04:55:00